Regional Weather Roundup
Issued by NWS Sioux Falls, SD

Home | Current Version | Previous Version | Text Only | Print | Product List | Glossary Off
Versions: 1 2 3 4 5 6 7 8 9 10 11 12 13 14 15 16 17 18 19 20 21 22 23 24 25 26 27 28 29 30 31 32 33 34 35 36 37 38 39 40 41 42 43 44 45 46 47 48 49 50

000
ASUS43 KFSD 202102
RWRFSD

WEATHER ROUNDUP FOR SE SOUTH DAKOTA/SW MINNESOTA/NW IOWA
NATIONAL WEATHER SERVICE SIOUX FALLS SD
400 PM CDT SUN AUG 20 2017

NOTE: "FAIR" INDICATES FEW OR NO CLOUDS BELOW 12,000 FEET WITH NO
SIGNIFICANT WEATHER AND OR OBSTRUCTIONS TO VISIBILITY.


SDZ038>040-050-052>070-202200-
SOUTHEAST SOUTH DAKOTA

CITY           SKY/WX    TMP DP  RH WIND       PRES   REMARKS
BROOKINGS      MOSUNNY   75  59  57 NE8       30.00S
CHAMBERLAIN    SUNNY     83  56  39 N13       30.00S
HURON          SUNNY     78  61  55 N15       30.01R
MADISON        FAIR      77  68  73 E12       29.99S
MITCHELL       MOSUNNY   84  68  58 N8        29.98R
SIOUX FALLS    PTSUNNY   81  69  67 NE15      29.97R
WINNER         FAIR      84  58  40 NE18G26   29.99F
YANKTON        MOSUNNY   85  67  54 NE5       29.95R
$$

MNZ071-072-080-081-089-090-097-098-202200-
SOUTHWEST MINNESOTA

CITY           SKY/WX    TMP DP  RH WIND       PRES   REMARKS
FAIRMONT       SUNNY     82  68  62 MISG      29.96S
JACKSON        MOSUNNY   81  66  61 CALM      29.98S
LUVERNE        MOSUNNY   81  64  57 NE9       29.98S
MARSHALL       MOSUNNY   74  64  71 N8        29.99R
MONTEVIDEO     PTSUNNY   72  63  73 N7        30.00R
PIPESTONE      MOSUNNY   75  61  60 E7        29.99F
REDWOOD FALLS  SUNNY     79  66  64 VRB3      29.96F
TRACY          PTSUNNY   76  64  67 N5        29.99S
WINDOM         SUNNY     81  64  57 N8        29.98S
WORTHINGTON    PTSUNNY   80  69  69 N8        29.99S
$$

IAZ001>003-012>014-020>022-031-032-NEZ013-014-SDZ071-202200-
NORTHWEST IOWA

CITY           SKY/WX    TMP DP  RH WIND       PRES   REMARKS
CHEROKEE       SUNNY     86  65  49 S6        29.95S
DENISON        SUNNY     84  70  61 SW6       29.97S
ESTHERVILLE    SUNNY     82  68  62 CALM      29.95F
ORANGE CITY    MOSUNNY   84  70  61 SE3       29.96S
SHELDON        SUNNY     84  68  58 VRB3      29.95S
SIOUX CITY     MOSUNNY   86  70  58 SW7       29.93F
SPENCER        SUNNY     85  66  53 W5        29.95F
STORM LAKE     SUNNY     82  68  61 S6        29.96F
$$

ABBREVIATIONS USED IN REMARKS
   TC - TEMPERATURE IN CELSIUS
  WCI - WIND CHILL INDEX
   HX - HEAT INDEX
  VSB - VISIBILITY





USA.gov is the U.S. government's official web portal to all federal, state and local government web resources and services.